Weather History for Litchfield, MN

Change the Weather History Date:

Friday, December 23, 2011

  Actual Average Record
Temperature  
Mean Temperature 27 °F -  
Max Temperature 37 °F 22 °F 44 °F (2005)
Min Temperature 17 °F 6 °F -30 °F (1983)
Degree Days  
Heating Degree Days 38    
Moisture  
Dew Point 17 °F    
Average Humidity 70    
Maximum Humidity 86    
Minimum Humidity 52    
Precipitation  
Precipitation 0.00 in - - ()
Sea Level Pressure  
Sea Level Pressure 30.06 in    
Wind  
Wind Speed 8 mph (WSW)    
Max Wind Speed 16 mph    
Max Gust Speed 24 mph    
Visibility 10 miles    
Events Snow    
Averages and records for this station are not official NWS values.
T = Trace of Precipitation, MM = Missing Value Source: NWS Daily Summary

Daily Weather History Graph

Daily Weather History Graph

Search for Another Location

Airport:

Trip Planner

Search our weather history database for the weather conditions in past years. The results will help you decide how hot, cold, wet, or windy it might be!

Date:

Astronomy

Dec. 23, 2011 Rise Set
Actual Time 7:54 AM CST 4:39 PM CST
Civil Twilight 7:20 AM CST 5:13 PM CST
Nautical Twilight 6:43 AM CST 5:51 PM CST
Astronomical Twilight 6:07 AM CST 6:26 PM CST
Moon 6:45 AM CST (12/23) 3:48 PM CST (12/23)
Length of Visible Light 9h 53m
Length of Day
8h 45m
Waning Crescent, 1% of the Moon is Illuminated
Dec 23
Waning Crescent
Dec 24
New
Jan 1
First Quarter
Jan 9
Full
Jan 16
Last Quarter

Hourly Weather History & Observations

Time (CST) Temp. Windchill Dew Point Humidity Pressure Visibility Wind Dir Wind Speed Gust Speed Precip Events Conditions
12:13 AM 17.6 °F 9.3 °F 12.2 °F 79% 30.23 in 10.0 mi SW 5.8 mph - N/A   Clear
12:33 AM 17.6 °F 9.3 °F 12.2 °F 79% 30.22 in 10.0 mi SW 5.8 mph - N/A   Clear
12:53 AM 17.6 °F 9.3 °F 12.2 °F 79% 30.21 in 10.0 mi SW 5.8 mph - N/A   Clear
1:12 AM 17.6 °F 9.3 °F 12.2 °F 79% 30.21 in 10.0 mi SW 5.8 mph - N/A   Clear
1:33 AM 19.4 °F 11.5 °F 14.0 °F 80% 30.20 in 10.0 mi SW 5.8 mph - N/A   Clear
1:53 AM 19.4 °F 11.5 °F 14.0 °F 80% 30.20 in 10.0 mi SW 5.8 mph - N/A   Clear
2:14 AM 19.4 °F 11.5 °F 14.0 °F 80% 30.19 in 10.0 mi SW 5.8 mph - N/A   Clear
2:33 AM 19.4 °F 9.5 °F 12.2 °F 74% 30.19 in 10.0 mi SW 8.1 mph - N/A   Clear
2:53 AM 19.4 °F 12.8 °F 14.0 °F 80% 30.19 in 10.0 mi SSW 4.6 mph - N/A   Clear
3:13 AM 19.4 °F 9.5 °F 14.0 °F 80% 30.18 in 10.0 mi SSW 8.1 mph - N/A   Clear
3:33 AM 19.4 °F 11.5 °F 12.2 °F 74% 30.16 in 10.0 mi SSW 5.8 mph - N/A   Clear
3:53 AM 19.4 °F 9.5 °F 12.2 °F 74% 30.14 in 10.0 mi SW 8.1 mph - N/A   Clear
4:13 AM 19.4 °F 9.5 °F 12.2 °F 74% 30.13 in 10.0 mi SW 8.1 mph - N/A   Clear
4:33 AM 19.4 °F 11.5 °F 12.2 °F 74% 30.11 in 10.0 mi SSW 5.8 mph - N/A   Clear
4:54 AM 19.4 °F 10.4 °F 12.2 °F 74% 30.10 in 10.0 mi SW 6.9 mph - N/A   Clear
5:13 AM 21.2 °F 11.7 °F 12.2 °F 68% 30.09 in 10.0 mi SSW 8.1 mph - N/A   Clear
5:33 AM 21.2 °F 13.6 °F 12.2 °F 68% 30.08 in 10.0 mi SSW 5.8 mph - N/A   Clear
6:13 AM 21.2 °F 13.6 °F 12.2 °F 68% 30.05 in 10.0 mi SSW 5.8 mph - N/A   Scattered Clouds
6:33 AM 23.0 °F 13.9 °F 12.2 °F 63% 30.03 in 10.0 mi SSW 8.1 mph - N/A   Mostly Cloudy
6:54 AM 23.0 °F 17.0 °F 12.2 °F 63% 30.02 in 10.0 mi SW 4.6 mph - N/A   Mostly Cloudy
7:13 AM 23.0 °F 13.1 °F 14.0 °F 68% 30.01 in 10.0 mi SSW 9.2 mph 16.1 mph N/A   Mostly Cloudy
7:33 AM 23.0 °F 13.9 °F 14.0 °F 68% 30.01 in 10.0 mi SW 8.1 mph 16.1 mph N/A   Overcast
7:53 AM 24.8 °F 15.3 °F 15.8 °F 69% 30.00 in 10.0 mi SW 9.2 mph - N/A   Overcast
8:13 AM 24.8 °F 15.3 °F 15.8 °F 69% 29.98 in 10.0 mi SW 9.2 mph 17.3 mph N/A   Overcast
8:33 AM 24.8 °F 15.3 °F 15.8 °F 69% 29.98 in 10.0 mi SW 9.2 mph 16.1 mph N/A Snow Light Snow
8:54 AM 24.8 °F 13.4 °F 17.6 °F 74% 29.99 in 3.0 mi WSW 12.7 mph 24.2 mph N/A Snow Light Snow
9:13 AM 24.8 °F 14.0 °F 19.4 °F 80% 29.98 in 3.0 mi SW 11.5 mph 21.9 mph N/A Snow Light Snow
9:33 AM 24.8 °F 14.0 °F 21.2 °F 86% 29.99 in 10.0 mi WSW 11.5 mph 20.7 mph N/A   Mostly Cloudy
9:53 AM 24.8 °F 14.0 °F 21.2 °F 86% 29.99 in 10.0 mi WSW 11.5 mph 18.4 mph N/A   Scattered Clouds
10:13 AM 26.6 °F 17.5 °F 21.2 °F 80% 29.99 in 10.0 mi WSW 9.2 mph - N/A   Scattered Clouds
10:33 AM 26.6 °F 16.8 °F 21.2 °F 80% 29.99 in 10.0 mi WSW 10.4 mph - N/A   Clear
10:54 AM 28.4 °F 19.7 °F 21.2 °F 74% 29.99 in 10.0 mi WSW 9.2 mph - N/A   Clear
11:33 AM 30.2 °F 20.2 °F 21.2 °F 69% 29.96 in 10.0 mi WSW 12.7 mph 18.4 mph N/A   Clear
11:53 AM 32.0 °F 22.5 °F 21.2 °F 64% 29.96 in 10.0 mi West 12.7 mph 24.2 mph N/A   Clear
12:13 PM 33.8 °F 23.9 °F 21.2 °F 60% 29.96 in 10.0 mi West 15.0 mph 21.9 mph N/A   Clear
1:13 PM 37.4 °F 29.3 °F 21.2 °F 52% 29.95 in 10.0 mi West 12.7 mph 21.9 mph N/A   Clear
1:33 PM 37.4 °F 28.2 °F 21.2 °F 52% 29.96 in 10.0 mi WNW 16.1 mph 24.2 mph N/A   Clear
1:54 PM 37.4 °F 28.9 °F 21.2 °F 52% 29.96 in 10.0 mi West 13.8 mph 18.4 mph N/A   Clear
2:13 PM 37.4 °F 28.9 °F 21.2 °F 52% 29.96 in 10.0 mi WNW 13.8 mph 20.7 mph N/A   Clear
2:33 PM 37.4 °F 28.9 °F 21.2 °F 52% 29.97 in 10.0 mi WNW 13.8 mph 21.9 mph N/A   Clear
2:54 PM 37.4 °F 29.3 °F 21.2 °F 52% 29.98 in 10.0 mi WNW 12.7 mph 20.7 mph N/A   Clear
3:13 PM 37.4 °F 30.3 °F 21.2 °F 52% 29.99 in 10.0 mi WNW 10.4 mph - N/A   Clear
3:33 PM 35.6 °F 27.1 °F 19.4 °F 52% 30.01 in 10.0 mi NW 12.7 mph 18.4 mph N/A   Clear
3:53 PM 33.8 °F 25.3 °F 19.4 °F 56% 30.02 in 10.0 mi NW 11.5 mph 17.3 mph N/A   Clear
4:13 PM 33.8 °F 24.8 °F 19.4 °F 56% 30.03 in 10.0 mi NW 12.7 mph - N/A   Clear
4:33 PM 32.0 °F 23.0 °F 19.4 °F 60% 30.04 in 10.0 mi WNW 11.5 mph 17.3 mph N/A   Clear
4:53 PM 30.2 °F 21.3 °F 19.4 °F 64% 30.05 in 10.0 mi WNW 10.4 mph - N/A   Clear
5:13 PM 30.2 °F 23.4 °F 17.6 °F 60% 30.06 in 10.0 mi WNW 6.9 mph - N/A   Clear
5:33 PM 28.4 °F 21.2 °F 19.4 °F 69% 30.06 in 10.0 mi WNW 6.9 mph - N/A   Clear
5:53 PM 28.4 °F 20.4 °F 19.4 °F 69% 30.07 in 10.0 mi WNW 8.1 mph - N/A   Clear
6:13 PM 26.6 °F 18.2 °F 19.4 °F 74% 30.08 in 10.0 mi WNW 8.1 mph - N/A   Clear
6:33 PM 26.6 °F 19.1 °F 17.6 °F 69% 30.09 in 10.0 mi WNW 6.9 mph - N/A   Clear
7:13 PM 24.8 °F 16.9 °F 17.6 °F 74% 30.09 in 10.0 mi NW 6.9 mph - N/A   Clear
7:33 PM 24.8 °F 19.1 °F 17.6 °F 74% 30.10 in 10.0 mi WNW 4.6 mph - N/A   Clear
7:54 PM 23.0 °F 18.4 °F 19.4 °F 86% 30.10 in 10.0 mi West 3.5 mph - N/A   Clear
8:13 PM 23.0 °F 18.4 °F 17.6 °F 80% 30.11 in 10.0 mi NW 3.5 mph - N/A   Clear
8:33 PM 23.0 °F - 17.6 °F 80% 30.12 in 10.0 mi Calm Calm - N/A   Clear
8:53 PM 21.2 °F - 17.6 °F 86% 30.12 in 10.0 mi Calm Calm - N/A   Clear
9:13 PM 19.4 °F 14.3 °F 17.6 °F 93% 30.13 in 10.0 mi West 3.5 mph - N/A   Clear
9:33 PM 19.4 °F 14.3 °F 15.8 °F 86% 30.13 in 10.0 mi NW 3.5 mph - N/A   Clear
9:53 PM 19.4 °F - 17.6 °F 93% 30.13 in 10.0 mi Calm Calm - N/A   Clear
10:13 PM 21.2 °F - 17.6 °F 86% 30.13 in 10.0 mi Calm Calm - N/A   Clear
10:33 PM 19.4 °F - 17.6 °F 93% 30.12 in 10.0 mi Calm Calm - N/A   Clear
10:54 PM 19.4 °F - 17.6 °F 93% 30.12 in 10.0 mi Calm Calm - N/A   Clear
11:13 PM 17.6 °F - 17.6 °F 100% 30.12 in 10.0 mi Calm Calm - N/A   Clear
11:33 PM 15.8 °F - 15.8 °F 100% 30.13 in 10.0 mi Calm Calm - N/A   Clear
11:54 PM 17.6 °F - 15.8 °F 93% 30.13 in 10.0 mi Calm Calm - N/A   Clear